| time (UTC) | temp C | wind direction | speed KPH | gust KPH | rain 1hr cm | rain 24hr cm | rain mn cm | humidity % | barometer mb |
| 20260504184542 | 17 | 260 | 4.8 | 11.3 | 0.00 | 2.74 | 2.74 | 98 | 1010.9 |
| 20260504183040 | 17 | 258 | 4.8 | 9.7 | 0.00 | 2.74 | 2.74 | 98 | 1011.0 |
| 20260504181542 | 17 | 281 | 1.6 | 11.3 | 0.00 | 2.72 | 2.72 | 98 | 1011.1 |
| 20260504180049 | 17 | 263 | 3.2 | 9.7 | 0.69 | 2.72 | 2.72 | 98 | 1011.3 |
| 20260504174543 | 18 | 273 | 0.0 | 8.0 | 1.27 | 2.72 | 2.72 | 98 | 1011.1 |
| 20260504173041 | 18 | 328 | 1.6 | 8.0 | 1.30 | 2.72 | 2.72 | 98 | 1011.4 |
| 20260504171542 | 18 | 304 | 6.4 | 12.9 | 1.30 | 2.72 | 2.72 | 99 | 1011.2 |
| 20260504081549 | 23 | 210 | 6.4 | 14.5 | 0.00 | 0.00 | 0.00 | 76 | 1008.3 |
| 20260504044539 | 16 | 288 | 0.0 | 4.8 | 0.00 | 0.00 | 0.00 | 74 | 1008.2 |
| 20260504043040 | 16 | 287 | 0.0 | 4.8 | 0.00 | 0.00 | 0.00 | 72 | 1008.0 |
| 20260504041535 | 17 | 295 | 0.0 | 4.8 | 0.00 | 0.00 | 0.00 | 68 | 1008.0 |
| 20260504040046 | 19 | 233 | 1.6 | 4.8 | 0.00 | 0.00 | 0.00 | 62 | 1008.1 |
| 20260504034543 | 19 | 196 | 0.0 | 1.6 | 0.00 | 0.00 | 0.00 | 65 | 1008.3 |
| 20260504033041 | 18 | 0 | 0.0 | 3.2 | 0.00 | 0.00 | 0.00 | 67 | 1008.2 |
| 20260504031539 | 16 | 279 | 0.0 | 3.2 | 0.00 | 0.00 | 0.00 | 74 | 1008.0 |
| 20260504030039 | 16 | 327 | 1.6 | 8.0 | 0.00 | 0.00 | 0.00 | 72 | 1007.8 |
| 20260504024547 | 17 | 338 | 1.6 | 6.4 | 0.00 | 0.00 | 0.00 | 71 | 1007.8 |
| 20260504023040 | 17 | 320 | 3.2 | 8.0 | 0.00 | 0.00 | 0.00 | 70 | 1007.9 |
| 20260504021540 | 18 | 313 | 3.2 | 6.4 | 0.00 | 0.00 | 0.00 | 67 | 1008.0 |
| 20260504020040 | 18 | 323 | 6.4 | 12.9 | 0.00 | 0.00 | 0.00 | 65 | 1008.1 |
| 20260504014550 | 18 | 331 | 6.4 | 14.5 | 0.00 | 0.00 | 0.00 | 66 | 1008.1 |
| 20260504013041 | 17 | 288 | 8.0 | 14.5 | 0.00 | 0.00 | 0.00 | 69 | 1008.0 |
| 20260504011547 | 20 | 323 | 8.0 | 17.7 | 0.00 | 0.00 | 0.00 | 61 | 1008.3 |
| 20260504010046 | 18 | 314 | 6.4 | 14.5 | 0.00 | 0.00 | 0.00 | 65 | 1008.4 |
| 20260504004542 | 17 | 325 | 6.4 | 11.3 | 0.00 | 0.00 | 0.00 | 71 | 1008.5 |
| 20260504003042 | 17 | 333 | 4.8 | 11.3 | 0.00 | 0.00 | 0.00 | 73 | 1008.6 |
| 20260504001547 | 17 | 326 | 6.4 | 9.7 | 0.00 | 0.00 | 0.00 | 72 | 1008.7 |
| 20260504000044 | 18 | 317 | 4.8 | 11.3 | 0.00 | 0.00 | 0.00 | 69 | 1008.9 |
| 20260503234536 | 18 | 319 | 6.4 | 9.7 | 0.00 | 0.00 | 0.00 | 67 | 1008.9 |
| 20260503233045 | 17 | 316 | 6.4 | 9.7 | 0.00 | 0.00 | 0.00 | 70 | 1009.1 |
| 20260503231544 | 18 | 295 | 6.4 | 12.9 | 0.00 | 0.00 | 0.00 | 69 | 1009.2 |
| 20260503230040 | 18 | 305 | 6.4 | 11.3 | 0.00 | 0.00 | 0.00 | 72 | 1009.3 |
| 20260503224543 | 16 | 299 | 6.4 | 11.3 | 0.00 | 0.00 | 0.00 | 79 | 1009.4 |
| 20260503223036 | 16 | 328 | 6.4 | 11.3 | 0.00 | 0.00 | 0.00 | 79 | 1009.5 |
| 20260503221555 | 15 | 313 | 6.4 | 11.3 | 0.00 | 0.00 | 0.00 | 81 | 1009.6 |
| 20260503220052 | 15 | 313 | 6.4 | 9.7 | 0.00 | 0.00 | 0.00 | 84 | 1009.6 |
| 20260503214542 | 14 | 300 | 3.2 | 4.8 | 0.00 | 0.00 | 0.00 | 84 | 1009.7 |
| 20260503213049 | 15 | 0 | 0.0 | 0.0 | 0.00 | 0.00 | 0.00 | 84 | 1010.0 |
| 20260503211541 | 15 | 0 | 1.6 | 4.8 | 0.00 | 0.00 | 0.00 | 83 | 1010.1 |
| 20260503210047 | 15 | 0 | 0.0 | 0.0 | 0.00 | 0.00 | 0.00 | 82 | 1010.1 |
| 20260503204558 | 15 | 0 | 0.0 | 0.0 | 0.00 | 0.00 | 0.00 | 82 | 1010.4 |
| 20260503203046 | 16 | 0 | 0.0 | 0.0 | 0.00 | 0.00 | 0.00 | 81 | 1010.6 |
| 20260503201541 | 16 | 0 | 0.0 | 1.6 | 0.00 | 0.00 | 0.00 | 81 | 1010.7 |
| 20260503200045 | 16 | 305 | 0.0 | 1.6 | 0.00 | 0.00 | 0.00 | 82 | 1011.0 |
| 20260503194540 | 17 | 305 | 0.0 | 1.6 | 0.00 | 0.00 | 0.00 | 80 | 1011.1 |
| 20260503193036 | 18 | 102 | 0.0 | 1.6 | 0.00 | 0.00 | 0.00 | 80 | 1011.2 |
| 20260503191535 | 18 | 0 | 0.0 | 1.6 | 0.00 | 0.00 | 0.00 | 79 | 1011.2 |
| 20260503190049 | 18 | 0 | 0.0 | 0.0 | 0.00 | 0.00 | 0.00 | 80 | 1011.3 |